sat.trackr.live / text

‹ back to catalog

ARIRANG-5 (KOMPSAT-5)

NORAD 39227 · 2013-042A

PAYLOAD ACTIVE UNKNOWN

§ Identity

Operator
Country
SKOR
Launch date
2013-08-22
Launch site
DLS
Launch vehicle
Mass (kg)
RCS (m²)
3.46

Purposes: earth_obs

External: N2YO · Heavens-Above · Gunter

§ Orbital elements

Epoch: 2026-09-20T03:21:49.417056Z

Period
95.71 min
Inclination
97.6203°
Eccentricity
0.0003387
Mean motion
15.04474560 rev/d
Perigee alt
550.8 km
Apogee alt
555.5 km
Semi-major
6,931.3 km
B*
8.2050e-5
RAAN
88.5211°
Arg perigee
147.2172°
Mean anomaly
212.9265°
Rev number
71,813

§ Raw data

ARIRANG-5 (KOMPSAT-5)1 39227U 13042A   26263.14015529  .00001087  00000+0  82050-4 0  99932 39227  97.6203  88.5211 0003387 147.2172 212.9265 15.04474560718135

JSON: /api/v1/satellites/39227 · /tle

For live sub-satellite position, see the globe view (requires WebGL).

§ Visibility from observer

Set your observer location to see the next 7 days of passes ≥ 10°. The values pass through the URL so the page stays shareable.

No JS? Fill the form by hand. The geolocation button needs JavaScript.

§ Radio — SatNOGS DB

ModeDescriptionDownlinkUplink
BPSK S-band telemetry 2.256 GHz

1 transmitter · refreshed weekly from db.satnogs.org